Weather History for Roosevelt Roads, PR

Change the Weather History Date:

Wednesday, May 1, 2013

  Actual Average Record
Temperature  
Mean Temperature 80 °F -  
Max Temperature 84 °F 83 °F 89 °F (2002)
Min Temperature 77 °F 71 °F 72 °F (2001)
Cooling Degree Days 16    
Growing Degree Days 30 (Base 50)    
Moisture  
Dew Point 72 °F    
Average Humidity 80    
Maximum Humidity 89    
Minimum Humidity 59    
Precipitation  
Precipitation 0.00 in - - ()
Sea Level Pressure  
Sea Level Pressure 30.00 in    
Wind  
Wind Speed 7 mph (East)    
Max Wind Speed 15 mph    
Max Gust Speed 21 mph    
Visibility 10 miles    
Events      
Averages and records for this station are not official NWS values.
T = Trace of Precipitation, MM = Missing Value Source: NWS Daily Summary

Daily Weather History Graph

Daily Weather History Graph

Search for Another Location

Airport:

Trip Planner

Search our weather history database for the weather conditions in past years. The results will help you decide how hot, cold, wet, or windy it might be!

Date:

Astronomy

May. 01, 2013 Rise Set
Actual Time 5:55 AM AST 6:44 PM AST
Civil Twilight 5:32 AM AST 7:06 PM AST
Nautical Twilight 5:05 AM AST 7:33 PM AST
Astronomical Twilight 4:38 AM AST 8:00 PM AST
Moon No Moon Rise 11:29 AM AST (5/1)
Length of Visible Light 13h 34m
Length of Day
12h 48m
Waning Gibbous, 59% of the Moon is Illuminated
May 1
Waning Gibbous
May 2
Last Quarter
May 9
New
May 18
First Quarter
May 25
Full

Hourly Weather History & Observations

Time (AST) Temp. Heat Index Dew Point Humidity Pressure Visibility Wind Dir Wind Speed Gust Speed Precip Events Conditions
12:53 AM 77.0 °F - 72.0 °F 84% 30.01 in 10.0 mi East 5.8 mph - N/A   Scattered Clouds
1:16 AM 77.0 °F - 73.4 °F 89% 30.00 in 10.0 mi East 4.6 mph - N/A   Mostly Cloudy
1:43 AM 77.0 °F - 73.4 °F 89% 29.99 in 10.0 mi East 5.8 mph - N/A   Scattered Clouds
1:53 AM 77.0 °F - 73.0 °F 88% 29.99 in 10.0 mi ESE 6.9 mph - N/A   Scattered Clouds
2:03 AM 77.0 °F - 73.4 °F 89% 29.99 in 10.0 mi ENE 6.9 mph - N/A   Mostly Cloudy
2:19 AM 77.0 °F - 73.4 °F 89% 29.99 in 10.0 mi East 8.1 mph - N/A   Scattered Clouds
2:53 AM 77.0 °F - 73.0 °F 88% 29.97 in 10.0 mi East 4.6 mph - N/A   Mostly Cloudy
3:02 AM 77.0 °F - 73.4 °F 89% 29.97 in 10.0 mi East 5.8 mph - N/A   Scattered Clouds
3:11 AM 77.0 °F - 73.4 °F 89% 29.97 in 10.0 mi East 5.8 mph - N/A   Mostly Cloudy
3:53 AM 77.0 °F - 73.0 °F 88% 29.97 in 10.0 mi ENE 4.6 mph - N/A   Overcast
4:37 AM 77.0 °F - 71.6 °F 83% 29.98 in 10.0 mi East 6.9 mph - N/A   Scattered Clouds
4:53 AM 77.0 °F - 73.0 °F 88% 29.99 in 10.0 mi ENE 3.5 mph - N/A   Mostly Cloudy
5:53 AM 77.0 °F - 72.0 °F 84% 30.00 in 10.0 mi East 5.8 mph - N/A   Mostly Cloudy
6:50 AM 78.8 °F - 71.6 °F 78% 30.01 in 10.0 mi East 5.8 mph - N/A   Scattered Clouds
6:53 AM 78.1 °F - 72.0 °F 81% 30.01 in 10.0 mi East 5.8 mph - N/A   Mostly Cloudy
7:22 AM 78.8 °F - 71.6 °F 78% 30.02 in 10.0 mi East 6.9 mph - N/A   Mostly Cloudy
7:38 AM 80.6 °F 84.6 °F 71.6 °F 74% 30.02 in 10.0 mi ENE 5.8 mph - N/A   Mostly Cloudy
7:46 AM 78.8 °F - 71.6 °F 78% 30.03 in 10.0 mi East 6.9 mph - N/A   Mostly Cloudy
7:53 AM 79.0 °F - 71.1 °F 77% 30.03 in 10.0 mi ESE 10.4 mph - N/A   Mostly Cloudy
8:12 AM 80.6 °F 84.6 °F 71.6 °F 74% 30.03 in 10.0 mi East 8.1 mph - N/A   Scattered Clouds
8:40 AM 80.6 °F 84.6 °F 71.6 °F 74% 30.04 in 10.0 mi ESE 9.2 mph - N/A   Mostly Cloudy
8:53 AM 81.0 °F 84.9 °F 71.1 °F 72% 30.04 in 10.0 mi ESE 10.4 mph - N/A   Mostly Cloudy
9:48 AM 82.4 °F 87.2 °F 71.6 °F 70% 30.04 in 10.0 mi ESE 10.4 mph - N/A   Scattered Clouds
9:53 AM 82.9 °F 87.5 °F 71.1 °F 67% 30.04 in 10.0 mi ESE 10.4 mph - N/A   Scattered Clouds
10:53 AM 84.0 °F 89.6 °F 72.0 °F 67% 30.04 in 10.0 mi East 11.5 mph 17.3 mph N/A   Partly Cloudy
11:53 AM 84.0 °F 89.6 °F 72.0 °F 67% 30.02 in 10.0 mi ESE 13.8 mph - N/A   Clear
12:53 PM 84.0 °F 87.8 °F 69.1 °F 61% 30.01 in 10.0 mi ESE 13.8 mph - N/A   Clear
1:53 PM 84.9 °F 88.8 °F 69.1 °F 59% 29.99 in 10.0 mi ESE 13.8 mph 20.7 mph N/A   Clear
2:53 PM 84.0 °F 89.0 °F 71.1 °F 65% 29.98 in 10.0 mi ESE 15.0 mph - N/A   Clear
3:53 PM 82.0 °F 86.3 °F 71.1 °F 69% 29.96 in 10.0 mi East 12.7 mph - N/A   Clear
4:53 PM 81.0 °F 85.2 °F 72.0 °F 74% 29.96 in 10.0 mi ESE 10.4 mph - N/A   Clear
5:53 PM 79.0 °F - 72.0 °F 79% 29.97 in 10.0 mi East 6.9 mph - N/A   Clear
6:53 PM 78.1 °F - 73.0 °F 84% 29.99 in 10.0 mi ESE 8.1 mph - N/A   Clear
7:53 PM 78.1 °F - 73.0 °F 84% 29.98 in 10.0 mi East 6.9 mph - N/A   Scattered Clouds
8:18 PM 78.8 °F - 73.4 °F 83% 29.98 in 10.0 mi ESE 5.8 mph - N/A   Mostly Cloudy
8:25 PM 78.8 °F - 73.4 °F 83% 29.98 in 10.0 mi East 6.9 mph - N/A   Partly Cloudy
8:53 PM 78.1 °F - 73.0 °F 84% 29.99 in 10.0 mi ESE 6.9 mph - N/A   Clear
9:42 PM 78.8 °F - 73.4 °F 83% 29.99 in 10.0 mi East 5.8 mph - N/A   Mostly Cloudy
9:53 PM 78.1 °F - 73.0 °F 84% 30.00 in 10.0 mi ESE 4.6 mph - N/A   Mostly Cloudy
10:16 PM 77.0 °F - 73.4 °F 89% 30.00 in 10.0 mi ESE 5.8 mph - N/A   Scattered Clouds
10:53 PM 77.0 °F - 73.0 °F 88% 30.00 in 10.0 mi ESE 3.5 mph - N/A   Partly Cloudy
11:53 PM 77.0 °F - 73.0 °F 88% 29.98 in 10.0 mi ESE 5.8 mph - N/A   Mostly Cloudy